EW3163 Weather Reports


Display with metric or nautical units.
time (UTC)temp
F
wind
direction
speed
MPH
gust
MPH
rain 1hr
in
rain 24hr
in
rain mn
in
humidity
%
barometer
mb
20260904034527 56 141 0.0 0.0 0.00 0.07 0.01 95 1003.8
20260904033026 56 141 0.0 0.0 0.00 0.07 0.01 95 1003.9
20260904031524 56 141 0.0 0.0 0.00 0.07 0.01 95 1004.6
20260904030023 56 139 0.0 0.0 0.00 0.07 0.01 95 1004.6
20260904024523 56 131 0.0 0.0 0.00 0.13 0.01 95 1004.4
20260904023021 56 131 0.0 0.0 0.00 0.13 0.01 95 1004.9
20260904021532 56 184 0.0 0.0 0.00 0.13 0.01 94 1005.0
20260904020017 57 184 0.0 0.0 0.00 0.13 0.01 94 1005.4
20260904014516 57 184 0.0 0.0 0.00 0.13 0.01 94 1004.9
20260904013015 57 192 0.0 0.0 0.00 0.13 0.01 94 1005.0
20260904011513 57 192 0.0 0.0 0.00 0.13 0.01 94 1005.4
20260904010011 57 193 0.0 0.0 0.00 0.13 0.01 94 1005.6
20260904004513 57 192 0.0 0.0 0.00 0.13 0.01 94 1005.9
20260904003017 57 193 0.0 0.0 0.01 0.13 0.01 94 1006.3
20260904001506 57 193 0.0 0.0 0.01 0.13 0.01 94 1006.7
20260904000005 57 187 0.0 0.0 0.01 0.13 0.01 93 1006.3
20260903234502 57 208 0.0 0.0 0.02 0.13 0.01 93 1006.7
20260903233059 58 83 0.0 0.0 0.01 0.12 0.00 93 1007.1
20260903231604 58 199 0.0 0.0 0.01 0.12 0.00 93 1007.4
20260903230053 58 188 0.0 0.0 0.01 0.12 0.00 93 1007.3
20260903224553 59 168 0.0 0.0 0.00 0.11 0.11 92 1007.3
20260903223050 59 192 0.0 0.0 0.00 0.11 0.11 92 1007.6
20260903221548 59 147 0.0 0.0 0.00 0.11 0.11 91 1007.7
20260903220046 60 139 0.0 0.0 0.00 0.11 0.11 90 1007.7
20260903214545 60 136 0.0 0.0 0.00 0.11 0.11 91 1007.8
20260903213051 60 97 0.0 0.0 0.00 0.11 0.11 91 1008.0
20260903211544 60 190 0.0 0.0 0.00 0.11 0.11 91 1008.1
20260903210043 60 190 0.0 0.0 0.00 0.11 0.11 91 1008.3
20260903204543 60 200 0.0 0.0 0.00 0.11 0.11 91 1008.3
20260903203051 61 116 0.0 0.0 0.00 0.11 0.11 91 1008.5
20260903201540 61 202 0.0 0.0 0.00 0.11 0.11 91 1008.6
20260903200039 61 120 0.0 0.0 0.00 0.11 0.11 91 1008.8
20260903194539 61 120 0.0 0.0 0.00 0.11 0.11 90 1008.9
20260903193038 61 187 0.0 0.0 0.00 0.11 0.11 90 1009.0
20260903191541 62 211 0.0 1.0 0.00 0.11 0.11 89 1009.1
20260903190038 62 48 0.0 7.0 0.00 0.11 0.11 88 1009.2
20260903184536 63 95 0.0 1.0 0.00 0.11 0.11 86 1009.3
20260903183036 63 219 0.0 4.0 0.00 0.11 0.11 85 1009.3
20260903181536 63 238 0.0 6.0 0.00 0.11 0.11 84 1009.5
20260903180035 63 27 0.0 4.0 0.00 0.11 0.11 84 1009.6
20260903174533 63 225 0.0 1.0 0.00 0.11 0.11 85 1009.4
20260903173033 63 133 0.0 1.0 0.00 0.11 0.11 86 1009.5
20260903171542 63 132 0.0 1.0 0.00 0.11 0.11 86 1009.4
20260903170037 64 224 0.0 2.0 0.00 0.11 0.11 85 1009.6
20260903164531 64 127 0.0 5.0 0.00 0.11 0.11 83 1009.7
20260903163034 65 253 0.0 8.0 0.00 0.11 0.11 81 1009.9
20260903161530 66 173 0.0 3.0 0.00 0.11 0.11 78 1010.1
20260903160033 66 103 0.0 3.0 0.00 0.11 0.11 76 1010.2
20260903154530 67 100 1.0 5.0 0.00 0.11 0.11 75 1010.6
20260903153029 68 150 0.0 2.0 0.00 0.11 0.11 73 1010.6
20260903151530 68 128 0.0 1.0 0.00 0.11 0.11 71 1010.7
20260903150027 69 158 0.0 3.0 0.00 0.11 0.11 68 1010.9
20260903144526 70 135 0.0 3.0 0.00 0.13 0.11 66 1010.9
20260903143025 70 194 0.0 5.0 0.00 0.13 0.11 66 1010.8
20260903141524 69 176 0.0 4.0 0.00 0.13 0.11 67 1010.7
20260903140023 69 330 0.0 7.0 0.00 0.13 0.11 68 1010.5
20260903134523 69 137 0.0 3.0 0.00 0.13 0.11 68 1010.7
20260903133023 70 148 0.0 3.0 0.00 0.13 0.11 66 1010.6
20260903131520 68 219 0.0 3.0 0.00 0.13 0.11 66 1010.9
20260903130019 67 259 0.0 6.0 0.00 0.13 0.11 64 1010.7
20260903124518 67 148 0.0 6.0 0.00 0.13 0.11 65 1010.8
20260903123017 67 4 0.0 2.0 0.00 0.13 0.11 65 1010.7
20260903121524 67 357 0.0 0.0 0.00 0.13 0.11 68 1010.9
20260903120015 68 335 0.0 1.0 0.00 0.13 0.11 68 1011.0
20260903114515 68 9 0.0 4.0 0.00 0.14 0.11 70 1010.9
20260903113011 66 359 0.0 1.0 0.00 0.14 0.11 76 1010.9
20260903111507 65 86 0.0 4.0 0.00 0.14 0.11 77 1010.9
20260903110005 65 4 0.0 0.0 0.00 0.14 0.11 77 1010.9
20260903104504 64 107 0.0 3.0 0.00 0.15 0.11 78 1010.9
20260903103002 64 8 0.0 7.0 0.00 0.15 0.11 77 1010.9
20260903101602 64 10 0.0 3.0 0.00 0.15 0.11 78 1010.7
20260903100059 64 328 0.0 1.0 0.00 0.15 0.11 79 1010.9
20260903094600 64 37 0.0 1.0 0.00 0.15 0.11 79 1010.5
20260903093058 63 325 0.0 2.0 0.00 0.15 0.11 80 1010.4
20260903091556 63 26 0.0 1.0 0.00 0.15 0.11 79 1010.4
20260903090054 63 6 0.0 1.0 0.00 0.15 0.11 79 1010.3
20260903084557 62 66 0.0 2.0 0.00 0.15 0.11 79 1010.1
20260903083052 62 310 0.0 1.0 0.00 0.15 0.11 80 1009.9
20260903081551 63 340 0.0 1.0 0.00 0.15 0.11 83 1010.1
20260903080048 63 3 0.0 3.0 0.00 0.15 0.11 85 1010.2
20260903074610 62 53 0.0 2.0 0.00 0.15 0.11 87 1009.9
20260903073055 62 321 0.0 2.0 0.00 0.15 0.11 88 1009.7
20260903071543 62 27 0.0 10.0 0.00 0.15 0.11 89 1009.4
20260903070041 61 15 0.0 1.0 0.00 0.15 0.11 91 1009.4
20260903064540 61 350 0.0 0.0 0.00 0.15 0.11 92 1009.3
20260903063038 61 89 0.0 1.0 0.00 0.15 0.11 92 1009.2
20260903061555 0 0.0 0.0 0.00 0.15 0.11 1008.9
20260903060033 0 0.0 0.0 0.00 0.15 0.11 1008.9
20260903054526 0 0.0 0.0 0.00 0.15 0.11 1008.6
20260903053022 0 0.0 0.0 0.00 0.15 0.11 1008.6
20260903051518 0 0.0 0.0 0.00 0.15 0.11 1008.4
20260903050014 0 0.0 0.0 0.00 0.15 0.11 1008.4
20260903044507 0 0.0 0.0 0.00 0.15 0.11 1008.5
20260903043004 0 0.0 0.0 0.01 0.15 0.11 1008.2
20260903041612 62 49 0.0 0.0 0.05 0.15 0.11 95 1008.2
20260903040059 62 86 0.0 0.0 0.05 0.15 0.11 95 1008.1